Wind_Speed
16 16 17 18 19 20 20 21 22 22 22 22 21 19 18 17 15 13 10 8 6 5 6 7 9 11 13 15 16 19 21 22 23 26 28 31 32 33 33 34 33 33 33
15 16 17 18 18 19 20 20 21 21 21 22 21 19 18 17 16 14 11 9 7 5 4 5 8 10 12 13 15 16 18 20 21 22 26 29 30 31 33 34 33 32 33
15 16 16 17 18 18 19 19 20 21 21 20 21 20 18 17 16 14 13 10 8 5 4 4 6 8 10 12 14 15 16 18 20 21 23 26 29 29 30 32 32 32 32
15 16 16 17 17 18 18 19 19 20 20 20 20 19 19 18 16 15 13 12 9 6 4 3 4 6 8 11 13 14 15 17 18 20 21 23 26 28 29 30 31 31 31
15 15 16 16 17 18 18 18 18 19 19 19 19 19 18 17 16 14 13 12 10 8 5 4 4 4 6 9 11 13 15 16 18 19 20 21 23 26 27 28 29 30 31
15 15 16 16 17 17 17 18 18 18 18 18 18 18 18 17 15 14 13 12 11 9 7 5 4 4 5 7 9 11 13 15 17 18 19 21 23 24 25 27 27 28 29
15 15 15 16 16 17 17 17 17 17 17 17 17 17 17 17 15 14 13 12 12 10 8 7 6 5 5 6 7 9 11 13 15 16 18 20 22 24 26 26 27 27 28
15 15 15 16 16 16 17 17 17 17 17 17 16 16 16 16 15 14 13 12 11 11 9 9 7 6 6 6 7 8 10 12 13 15 17 18 20 21 23 25 27 27 28
15 15 15 15 16 16 16 17 17 17 17 17 16 15 15 14 15 14 14 13 12 11 10 10 8 7 6 6 6 7 8 10 12 13 15 16 18 20 21 23 24 25 26
16 16 16 16 16 16 16 16 17 17 17 16 15 15 14 14 14 14 14 13 12 11 11 10 9 8 7 7 6 7 7 8 10 12 14 16 17 19 21 22 23 24 25
17 17 16 16 16 16 16 17 17 17 17 16 15 15 14 14 14 14 13 13 12 12 11 11 10 9 8 8 8 8 9 9 10 11 12 14 16 18 20 22 23 25 26
18 17 17 17 17 17 17 17 17 17 17 16 15 15 14 14 14 14 14 13 13 12 12 11 11 10 10 10 9 9 9 10 11 12 13 14 15 17 19 21 23 25 26
19 18 18 18 18 18 17 17 17 17 16 16 16 15 15 14 14 14 14 14 14 13 12 12 12 11 11 10 10 10 11 11 12 13 14 15 16 17 18 20 22 23 25
20 20 19 19 19 19 18 18 18 17 17 17 16 16 15 15 15 15 15 15 14 14 14 13 13 13 12 12 11 12 12 13 13 14 15 16 17 19 20 21 22 24 25
22 21 21 20 20 20 20 19 19 19 18 18 17 17 17 16 16 16 16 16 15 15 15 14 14 14 14 14 14 14 14 14 14 15 16 17 18 20 21 23 24 25 25
24 23 22 22 21 21 21 21 20 20 20 19 19 18 18 18 18 18 17 17 17 16 16 16 16 16 16 16 16 16 17 17 17 18 18 19 20 21 22 23 24 25 27
25 25 25 24 23 23 22 22 22 21 21 21 21 20 20 20 20 19 19 19 19 18 18 18 18 18 19 19 19 19 19 19 19 20 20 21 22 23 24 25 26 26 27
27 27 27 26 25 24 24 23 23 23 22 22 22 22 22 22 22 21 21 21 20 20 20 20 21 21 21 21 21 22 22 22 22 22 22 23 24 25 26 26 27 28 29
29 29 28 28 27 27 26 25 25 24 24 24 24 24 24 24 23 23 23 22 22 22 22 22 23 23 23 23 24 24 24 24 25 25 25 25 26 27 27 28 28 29 30
31 31 30 30 29 29 28 27 27 27 26 26 25 25 25 25 25 25 24 24 24 24 24 25 25 25 25 25 26 26 26 27 27 27 27 28 28 29 29 30 31 32 33
33 33 33 32 31 31 30 30 29 29 29 28 28 27 27 27 27 27 26 26 26 26 26 27 27 28 28 28 28 28 28 29 29 29 30 30 31 32 33 33 34 35 36
36 35 35 34 34 33 33 32 32 31 31 31 30 30 29 29 28 28 28 28 28 28 29 29 29 30 30 30 30 31 31 31 31 32 32 33 34 34 35 36 37 38 39
38 38 37 36 36 36 35 35 34 34 33 33 32 32 31 31 31 30 30 30 30 31 31 31 32 32 32 32 32 33 33 33 34 34 35 35 36 37 37 38 39 40 41
40 40 40 39 38 38 38 37 36 36 35 34 34 33 33 33 33 33 33 33 33 34 33 33 33 33 34 34 34 34 35 35 36 36 36 37 38 38 39 40 40 41 41
40 41 42 41 40 39 39 38 38 37 37 36 36 35 35 35 35 35 35 35 35 35 35 35 35 36 36 36 36 36 36 37 37 38 38 38 39 39 39 39 40 40 41
41 41 42 42 42 41 41 40 39 39 38 37 37 36 36 37 37 37 37 37 37 37 37 37 37 37 37 37 37 38 38 38 38 39 39 39 39 39 39 40 40 41 42
Wind_Direction
331 334 338 341 344 348 351 353 356 358 0 1 360 360 360 360 357 354 351 343 329 303 276 251 232 224 225 226 224 221 221 222 224 226 226 228 228 228 228 229 231 231 231
328 331 336 339 342 345 349 352 355 357 359 1 2 2 1 1 2 1 358 351 342 324 292 255 235 229 228 226 224 224 224 226 227 228 228 229 230 230 231 231 232 233 234
325 328 332 337 340 343 347 350 354 356 358 0 2 4 4 2 2 2 3 1 355 341 312 271 246 238 230 227 229 230 229 231 232 234 233 232 232 230 231 233 234 238 238
322 326 330 334 337 340 344 347 351 353 356 358 1 3 4 4 3 3 3 3 3 357 342 318 270 245 234 230 233 234 234 236 237 238 237 235 233 233 234 235 238 239 240
318 322 327 331 334 338 342 345 348 351 354 356 358 -0 2 4 5 4 5 4 2 359 346 330 307 267 246 238 236 234 235 237 237 237 236 235 234 233 233 235 238 240 242
313 318 323 327 331 334 338 341 344 347 350 353 356 358 360 2 3 4 3 4 3 360 352 338 322 298 270 253 245 242 239 239 239 239 237 236 235 235 233 235 237 239 241
308 313 318 322 327 330 334 336 339 342 344 347 350 354 357 0 1 2 2 2 2 0 355 345 328 304 284 268 261 253 246 244 243 240 239 237 237 237 237 238 239 241 244
302 307 312 317 321 325 329 332 335 338 340 342 344 348 353 357 0 1 1 0 358 359 357 351 339 318 294 277 268 261 254 252 250 245 243 241 240 239 239 242 245 247 247
297 302 307 311 315 319 324 328 331 333 335 337 340 343 346 350 354 356 356 357 357 356 353 350 344 334 315 295 280 272 263 258 255 251 249 248 246 243 242 244 246 248 249
292 297 301 306 310 314 318 323 326 329 331 332 334 337 339 342 346 349 350 351 352 351 350 349 345 338 327 311 297 286 275 267 263 257 252 251 249 245 244 246 250 252 252
287 292 296 300 305 309 313 317 321 324 326 328 329 332 333 335 338 341 344 345 345 346 345 343 340 335 326 314 303 294 283 275 270 265 260 256 253 252 251 252 254 254 255
283 287 291 295 300 304 308 312 315 318 322 324 325 327 328 329 331 333 334 335 337 338 340 338 336 332 323 314 305 297 289 281 277 273 268 263 260 258 258 257 257 257 257
279 282 286 291 295 299 304 307 310 313 316 318 320 322 323 324 325 326 327 327 328 329 329 329 329 328 325 316 309 301 295 288 281 278 275 272 268 265 263 261 261 261 261
275 279 282 286 290 294 298 302 305 308 310 312 314 316 317 318 319 320 320 320 321 322 323 322 321 320 320 318 311 304 299 294 286 281 278 275 272 269 267 267 266 265 264
273 276 279 282 285 289 292 296 300 303 304 306 308 310 311 312 313 314 314 313 313 314 315 316 317 315 313 311 309 305 300 297 292 286 281 279 276 274 272 271 270 269 268
270 273 275 278 281 284 288 291 294 298 300 301 302 304 307 308 308 308 309 309 308 307 307 308 309 310 309 306 304 303 301 299 297 293 289 286 284 282 280 279 277 275 274
268 271 273 275 278 280 283 286 290 292 295 297 298 300 302 304 305 305 304 304 304 303 302 302 303 303 303 303 301 300 299 298 297 296 293 291 288 286 284 283 282 280 279
267 269 271 273 275 277 279 282 285 288 290 292 294 296 299 300 302 302 301 300 300 299 299 299 299 300 300 299 299 299 298 297 296 295 293 291 289 288 286 285 284 283 281
264 267 269 271 273 275 276 278 281 283 286 288 291 293 295 296 298 299 299 298 298 297 297 297 298 298 299 298 298 297 297 296 295 294 292 291 290 289 288 287 286 285 284
262 264 266 269 271 273 274 276 278 280 282 285 287 290 291 293 294 296 296 296 295 295 295 296 296 296 297 297 297 296 296 295 294 294 292 290 289 289 288 288 287 287 286
260 262 264 266 269 271 273 274 276 278 280 282 285 287 289 290 291 293 294 294 294 294 294 294 295 295 295 295 295 295 295 294 294 293 292 291 290 289 288 288 288 287 287
258 260 262 264 267 269 271 272 274 276 278 280 282 284 286 288 289 291 292 294 294 293 293 293 294 294 294 294 294 294 294 294 293 292 292 291 291 291 290 290 290 289 288
256 257 260 262 264 267 269 271 273 275 277 279 281 283 285 286 287 288 290 292 292 293 293 294 294 294 294 294 295 295 294 294 293 293 293 293 293 292 292 291 291 291 290
257 257 258 260 263 265 267 269 271 274 276 278 280 281 283 285 286 288 289 290 291 291 292 293 293 294 294 294 294 294 294 294 293 294 294 294 294 294 293 293 293 293 292
258 258 258 260 261 264 266 268 270 273 275 277 279 280 282 283 285 287 289 290 290 290 291 292 293 294 294 295 294 294 294 294 294 294 294 294 294 294 294 294 294 294 294
259 260 260 260 261 262 264 266 269 272 274 276 277 279 281 282 284 286 287 288 288 289 290 291 292 293 294 294 295 294 294 294 294 294 294 294 294 295 295 295 295 295 295
Height
5814 5811 5808 5805 5802 5798 5794 5790 5786 5781 5777 5772 5767 5763 5759 5755 5752 5749 5747 5745 5744 5744 5744 5745 5746 5748 5750 5753 5756 5760 5763 5768 5772 5776 5780 5784 5789 5794 5798 5803 5807 5812 5816
5812 5810 5807 5804 5801 5798 5794 5790 5786 5781 5777 5773 5768 5764 5760 5756 5753 5750 5748 5745 5744 5743 5743 5744 5745 5747 5749 5751 5754 5757 5760 5764 5767 5771 5775 5779 5783 5788 5792 5797 5801 5805 5809
5810 5808 5806 5803 5800 5797 5793 5790 5786 5782 5777 5773 5769 5765 5761 5757 5754 5751 5748 5746 5744 5743 5743 5743 5744 5745 5747 5749 5752 5754 5757 5760 5763 5767 5770 5773 5777 5782 5786 5790 5795 5799 5802
5808 5806 5804 5801 5799 5796 5792 5789 5785 5782 5778 5774 5770 5766 5762 5758 5755 5752 5749 5747 5745 5744 5743 5743 5743 5744 5745 5747 5749 5751 5754 5757 5759 5762 5765 5768 5772 5776 5780 5784 5788 5792 5795
5806 5804 5802 5800 5797 5794 5791 5788 5785 5781 5778 5774 5770 5767 5763 5759 5756 5753 5750 5748 5745 5744 5743 5743 5743 5743 5744 5745 5747 5749 5751 5753 5755 5758 5760 5763 5767 5770 5774 5777 5781 5785 5788
5804 5802 5800 5798 5795 5793 5790 5787 5784 5781 5777 5774 5771 5767 5763 5760 5757 5754 5751 5749 5746 5745 5743 5743 5742 5742 5742 5743 5745 5746 5748 5750 5752 5754 5756 5759 5762 5765 5768 5772 5775 5779 5782
5801 5799 5798 5795 5793 5791 5788 5785 5783 5780 5777 5774 5771 5767 5764 5760 5757 5754 5752 5750 5747 5745 5744 5743 5742 5741 5741 5742 5742 5743 5745 5746 5748 5751 5753 5755 5757 5760 5763 5766 5769 5772 5775
5798 5796 5795 5793 5791 5789 5786 5784 5781 5778 5776 5773 5770 5767 5764 5761 5758 5755 5752 5750 5748 5746 5744 5743 5742 5741 5740 5741 5741 5742 5742 5743 5745 5746 5748 5750 5752 5755 5758 5761 5763 5766 5768
5794 5793 5792 5790 5788 5786 5784 5782 5779 5777 5774 5771 5769 5766 5763 5761 5758 5755 5753 5750 5748 5746 5745 5743 5741 5740 5740 5739 5740 5740 5740 5741 5742 5743 5744 5746 5748 5750 5752 5755 5757 5760 5762
5790 5789 5788 5787 5785 5783 5781 5779 5777 5775 5772 5770 5767 5765 5762 5760 5757 5755 5753 5750 5748 5746 5744 5743 5741 5740 5739 5738 5738 5738 5738 5738 5739 5739 5740 5742 5743 5745 5747 5749 5751 5753 5755
5786 5785 5784 5783 5782 5780 5778 5776 5774 5772 5770 5767 5765 5763 5761 5758 5756 5754 5752 5750 5748 5746 5744 5742 5740 5739 5738 5737 5737 5736 5736 5736 5736 5737 5737 5738 5739 5740 5742 5743 5745 5747 5748
5781 5781 5780 5779 5778 5776 5775 5773 5771 5769 5767 5765 5763 5761 5759 5757 5755 5752 5750 5748 5747 5745 5743 5741 5739 5738 5737 5736 5735 5734 5734 5734 5734 5734 5734 5734 5735 5736 5737 5738 5739 5740 5741
5776 5776 5775 5774 5773 5772 5771 5769 5767 5766 5764 5762 5760 5758 5756 5754 5752 5750 5748 5747 5745 5743 5741 5740 5738 5737 5735 5734 5733 5732 5732 5731 5731 5731 5731 5731 5731 5731 5732 5732 5733 5733 5733
5770 5770 5770 5769 5768 5767 5766 5765 5763 5762 5760 5758 5757 5755 5753 5751 5749 5747 5746 5744 5742 5740 5739 5737 5736 5734 5733 5732 5731 5730 5729 5728 5727 5727 5726 5726 5726 5726 5726 5726 5726 5726 5726
5764 5764 5764 5763 5763 5762 5761 5760 5759 5757 5756 5754 5753 5751 5749 5748 5746 5744 5742 5740 5739 5737 5736 5734 5733 5731 5730 5728 5727 5726 5725 5724 5723 5722 5722 5721 5720 5720 5720 5719 5719 5719 5719
5757 5757 5757 5757 5756 5756 5755 5754 5753 5752 5751 5749 5748 5746 5745 5743 5741 5740 5738 5736 5735 5733 5732 5730 5729 5727 5726 5724 5723 5722 5721 5719 5718 5717 5716 5715 5714 5713 5713 5712 5711 5711 5710
5749 5749 5750 5750 5750 5749 5749 5748 5747 5746 5745 5744 5742 5741 5740 5738 5736 5735 5733 5731 5730 5728 5727 5726 5724 5723 5721 5720 5718 5716 5715 5714 5712 5711 5710 5708 5707 5706 5705 5704 5704 5703 5702
5741 5741 5742 5742 5742 5742 5742 5741 5741 5740 5739 5738 5736 5735 5734 5732 5731 5729 5728 5726 5724 5723 5721 5720 5719 5717 5715 5714 5712 5710 5709 5707 5706 5704 5703 5701 5700 5699 5697 5696 5695 5694 5692
5732 5732 5733 5733 5734 5734 5734 5734 5733 5733 5732 5731 5730 5729 5727 5726 5724 5723 5721 5720 5718 5717 5715 5714 5712 5710 5709 5707 5705 5704 5702 5700 5698 5697 5695 5693 5692 5690 5689 5687 5686 5684 5683
5722 5723 5724 5724 5725 5725 5725 5725 5725 5725 5724 5724 5723 5722 5720 5719 5717 5716 5714 5713 5711 5710 5708 5707 5705 5703 5701 5700 5698 5696 5694 5692 5690 5688 5686 5685 5683 5681 5679 5677 5676 5674 5672
5712 5713 5714 5714 5715 5716 5716 5716 5716 5716 5716 5715 5715 5714 5712 5711 5710 5708 5707 5705 5703 5702 5700 5699 5697 5695 5693 5691 5689 5687 5685 5683 5681 5679 5677 5675 5673 5671 5669 5667 5665 5662 5660
5700 5702 5703 5704 5705 5705 5706 5706 5706 5706 5706 5706 5705 5704 5703 5702 5701 5700 5698 5697 5695 5693 5692 5690 5688 5686 5684 5682 5680 5678 5676 5674 5672 5669 5667 5665 5663 5660 5658 5655 5653 5650 5647
5688 5690 5691 5693 5694 5695 5695 5696 5696 5696 5696 5696 5695 5695 5694 5693 5692 5691 5689 5688 5686 5684 5682 5680 5679 5677 5674 5672 5670 5668 5665 5663 5661 5658 5656 5653 5651 5648 5645 5642 5639 5636 5633
5676 5677 5679 5681 5682 5683 5684 5685 5685 5685 5685 5685 5685 5684 5683 5683 5682 5681 5679 5678 5676 5674 5672 5670 5668 5666 5664 5662 5659 5657 5654 5652 5649 5647 5644 5641 5638 5635 5632 5629 5626 5622 5619
5663 5664 5666 5668 5670 5671 5672 5673 5673 5674 5674 5674 5674 5673 5673 5672 5671 5670 5668 5667 5665 5663 5662 5660 5657 5655 5653 5651 5648 5645 5643 5640 5637 5635 5632 5629 5626 5622 5619 5616 5613 5609 5605
5650 5651 5653 5655 5657 5658 5659 5660 5661 5662 5662 5662 5662 5662 5661 5661 5660 5658 5657 5656 5654 5652 5650 5648 5646 5644 5641 5639 5636 5634 5631 5628 5625 5622 5619 5616 5613 5610 5607 5603 5600 5596 5592